"Pseudo-MPEC" for P22mCYG

Created 2026 Apr 16 23:35:11 UT using Find_Orb

Click here for an explanation of pseudo-MPECs

 
 Astrometry: 
     P22mCYG*0C2026 04 15.52322516 03 57.458-01 09 47.00   ~4FFK 21.04wXNEOCPF52
     P22mCYG 0C2026 04 15.54666416 03 56.812-01 09 38.46   ~4FFK 21.21wXNEOCPF52
     P22mCYG 0C2026 04 15.55839816 03 56.466-01 09 34.29   ~4FFK 21.10wXNEOCPF52

Station data:
(F52) Pan-STARRS 2, Haleakala  (N20.707382 W156.255910)  US/Hawaii.
   Observers J. Herman, T. Lowe, P. Minguez, A. Schultz, I. Smith. Measurers
   K. Chambers, T. de Boer, J. Fairlamb, H. Gao, M. Huber, C.-C. Lin, E.
   Magnier, Y. Ramanjooloo, R. Wainscoat, R. Weryk. 1.8-m Ritchey-Chrétien +
   CCD.

Orbital elements:  P22mCYG
   Perihelion 2025 Jun 4.637396 +/- 620 TT = 15:17:50.9 (JD 2460831.137396)
Epoch 2026 Apr 16.0 TT = JDT 2461146.5   Ju: 0.7534   Sa: 0.2131
M  11.149701915 +/- 70              (J2000 ecliptic)             AutoNEOCP
n   0.035355180 +/- 0.116           Peri.  326.027298 +/- 80
a   9.193919009 +/- 20.1            Node   173.906081 +/- 60
e   0.77970949 +/- 0.251            Incl.   17.546816 +/- 35
P  27.87732                H 15.26  G  0.15   U 11.3  SR
q 2.025333021 +/- 1.67    Q 16.36250499 +/- 54.9
From 3 observations 2026 Apr. 15 (50.6 min); mean residual 0".08
Residuals in arcseconds: 
260415 F52  .05-  .01-    260415 F52  .14+  .04+    260415 F52  .10-  .03-    

Ephemerides (geocentric):
Date (UTC) HH   RA             Dec           delta  r     elong  mag " sig PA
---- --------  ------------   ------------  ------ ------ -----  --- --------
2026 04 17 00  16 03 16.820   -01 00 54.88  2.8316 3.6826 142.9 21.0  554 101
2026 04 17 01  16 03 15.647   -01 00 40.00  2.8316 3.6829 143.0 21.0  593 102
2026 04 17 02  16 03 14.473   -01 00 25.13  2.8316 3.6832 143.0 21.0  637 102
2026 04 17 03  16 03 13.298   -01 00 10.26  2.8316 3.6835 143.1 21.0  685 102
2026 04 17 04  16 03 12.121   -00 59 55.40  2.8315 3.6838 143.1 21.0  738 102
2026 04 17 05  16 03 10.942   -00 59 40.54  2.8315 3.6841 143.1 21.0  799 103
2026 04 17 06  16 03 09.762   -00 59 25.69  2.8315 3.6843 143.2 21.0  867 103
2026 04 17 07  16 03 08.581   -00 59 10.85  2.8315 3.6846 143.2 21.0  944 103
2026 04 17 08  16 03 07.399   -00 58 56.01  2.8315 3.6849 143.2 21.0 1034 104
2026 04 17 09  16 03 06.215   -00 58 41.18  2.8314 3.6852 143.3 21.0 1138 104
2026 04 17 10  16 03 05.029   -00 58 26.35  2.8314 3.6855 143.3 21.0 1262 104
2026 04 17 11  16 03 03.842   -00 58 11.53  2.8314 3.6858 143.4 21.0 1409 105
2026 04 17 12  16 03 02.654   -00 57 56.71  2.8314 3.6861 143.4 21.0 1590 105
2026 04 17 13  16 03 01.464   -00 57 41.91  2.8314 3.6864 143.4 21.0 1816 105
2026 04 17 14  16 03 00.273   -00 57 27.10  2.8314 3.6867 143.5 21.0 2106 106
2026 04 17 15  16 02 59.080   -00 57 12.31  2.8313 3.6870 143.5 21.0 2492 106
2026 04 17 16  16 02 57.887   -00 56 57.52  2.8313 3.6873 143.5 21.0 3033 106
2026 04 17 17  16 02 56.691   -00 56 42.73  2.8313 3.6876 143.6 21.0 3840 107
2026 04 17 18  16 02 55.494   -00 56 27.95  2.8313 3.6879 143.6 21.0 5172 107
2026 04 17 19  16 02 54.296   -00 56 13.18  2.8313 3.6882 143.7 21.0 7751 107
2026 04 17 20  16 02 53.097   -00 55 58.41  2.8313 3.6885 143.7 21.0 239' 107
2026 04 17 21  16 02 51.896   -00 55 43.65  2.8313 3.6888 143.7 21.0 586' 101
2026 04 17 22  16 02 50.694   -00 55 28.90  2.8312 3.6891 143.8 21.0 876'  95
2026 04 17 23  16 02 49.490   -00 55 14.15  2.8312 3.6893 143.8 21.0 963'  93
2026 04 18 00  16 02 48.285   -00 54 59.41  2.8312 3.6896 143.8 21.0 999'  92
2026 04 18 01  16 02 47.078   -00 54 44.67  2.8312 3.6899 143.9 21.0  17d  92
2026 04 18 02  16 02 45.871   -00 54 29.94  2.8312 3.6902 143.9 21.0  17d  92
2026 04 18 03  16 02 44.661   -00 54 15.22  2.8312 3.6905 143.9 21.0  17d  91
2026 04 18 04  16 02 43.451   -00 54 00.50  2.8312 3.6908 144.0 21.0  17d  91
2026 04 18 05  16 02 42.239   -00 53 45.79  2.8312 3.6911 144.0 21.0  17d  91
2026 04 18 06  16 02 41.025   -00 53 31.08  2.8311 3.6914 144.1 21.0  18d  91
2026 04 18 07  16 02 39.811   -00 53 16.39  2.8311 3.6917 144.1 21.0  18d  91
2026 04 18 08  16 02 38.595   -00 53 01.69  2.8311 3.6920 144.1 21.0  18d  91
2026 04 18 09  16 02 37.377   -00 52 47.01  2.8311 3.6923 144.2 21.0  18d  91
2026 04 18 10  16 02 36.158   -00 52 32.33  2.8311 3.6926 144.2 21.0  18d  91
2026 04 18 11  16 02 34.938   -00 52 17.65  2.8311 3.6929 144.2 21.0  18d  91
2026 04 18 12  16 02 33.716   -00 52 02.99  2.8311 3.6932 144.3 21.0  18d  91
2026 04 18 13  16 02 32.494   -00 51 48.32  2.8311 3.6935 144.3 21.0  18d  91
2026 04 18 14  16 02 31.269   -00 51 33.67  2.8311 3.6938 144.4 21.0  18d  91
2026 04 18 15  16 02 30.044   -00 51 19.02  2.8311 3.6941 144.4 21.0  18d  91
2026 04 18 16  16 02 28.817   -00 51 04.38  2.8311 3.6943 144.4 21.0  18d  91
2026 04 18 17  16 02 27.588   -00 50 49.74  2.8311 3.6946 144.5 21.0  18d  91
2026 04 18 18  16 02 26.359   -00 50 35.12  2.8311 3.6949 144.5 21.0  18d  91
2026 04 18 19  16 02 25.128   -00 50 20.49  2.8311 3.6952 144.5 21.0  18d  91
2026 04 18 20  16 02 23.895   -00 50 05.88  2.8311 3.6955 144.6 21.0  18d  91
2026 04 18 21  16 02 22.661   -00 49 51.27  2.8311 3.6958 144.6 21.0  18d  91
2026 04 18 22  16 02 21.426   -00 49 36.66  2.8310 3.6961 144.7 21.0  18d  91
2026 04 18 23  16 02 20.190   -00 49 22.07  2.8310 3.6964 144.7 21.0  18d  91